Year,Month,Day,Hour,Minute,Value (Times are PST for temperature in C)
2009,09,29,00,00,9.20
2009,09,29,00,01,9.20
2009,09,29,00,02,9.20
2009,09,29,00,03,9.20
2009,09,29,00,04,9.10
2009,09,29,00,05,9.10
2009,09,29,00,06,9.10
2009,09,29,00,07,9.10
2009,09,29,00,08,9.00
2009,09,29,00,09,9.00
2009,09,29,00,10,9.00
2009,09,29,00,11,8.90
2009,09,29,00,12,8.80
2009,09,29,00,13,8.80
2009,09,29,00,14,8.70
2009,09,29,00,15,8.70
2009,09,29,00,16,8.70
2009,09,29,00,17,8.60
2009,09,29,00,18,8.60
2009,09,29,00,19,8.50
2009,09,29,00,20,8.50
2009,09,29,00,21,8.50
2009,09,29,00,22,8.40
2009,09,29,00,23,8.40
2009,09,29,00,24,8.30
2009,09,29,00,25,8.30
2009,09,29,00,26,8.20
2009,09,29,00,27,8.20
2009,09,29,00,28,8.20
2009,09,29,00,29,8.10
2009,09,29,00,30,8.10
2009,09,29,00,31,8.10
2009,09,29,00,32,8.00
2009,09,29,00,33,8.00
2009,09,29,00,34,8.00
2009,09,29,00,35,8.00
2009,09,29,00,36,7.90
2009,09,29,00,37,7.90
2009,09,29,00,38,7.90
2009,09,29,00,39,7.90
2009,09,29,00,40,7.90
2009,09,29,00,41,7.90
2009,09,29,00,42,7.90
2009,09,29,00,43,7.90
2009,09,29,00,44,7.90
2009,09,29,00,45,7.90
2009,09,29,00,46,7.90
2009,09,29,00,47,8.00
2009,09,29,00,48,8.00
2009,09,29,00,49,8.10
2009,09,29,00,50,8.10
2009,09,29,00,51,8.10
2009,09,29,00,52,8.10
2009,09,29,00,53,8.10
2009,09,29,00,54,8.10
2009,09,29,00,55,8.10
2009,09,29,00,56,8.10
2009,09,29,00,57,8.10
2009,09,29,00,58,8.10
2009,09,29,00,59,8.10
2009,09,29,01,00,8.10
2009,09,29,01,01,8.00
2009,09,29,01,02,8.10
2009,09,29,01,03,8.10
2009,09,29,01,04,8.10
2009,09,29,01,05,8.10
2009,09,29,01,06,8.10
2009,09,29,01,07,8.10
2009,09,29,01,08,8.00
2009,09,29,01,09,8.00
2009,09,29,01,10,8.00
2009,09,29,01,11,8.00
2009,09,29,01,12,8.00
2009,09,29,01,13,8.00
2009,09,29,01,14,7.90
2009,09,29,01,15,7.90
2009,09,29,01,16,7.90
2009,09,29,01,17,7.90
2009,09,29,01,18,7.90
2009,09,29,01,19,7.90
2009,09,29,01,20,7.90
2009,09,29,01,21,7.90
2009,09,29,01,22,7.90
2009,09,29,01,23,7.90
2009,09,29,01,24,7.90
2009,09,29,01,25,7.90
2009,09,29,01,26,7.90
2009,09,29,01,27,7.90
2009,09,29,01,28,7.90
2009,09,29,01,29,7.90
2009,09,29,01,30,7.90
2009,09,29,01,31,7.90
2009,09,29,01,32,7.90
2009,09,29,01,33,8.00
2009,09,29,01,34,8.00
2009,09,29,01,35,8.00
2009,09,29,01,36,8.00
2009,09,29,01,37,8.00
2009,09,29,01,38,8.10
2009,09,29,01,39,8.10
2009,09,29,01,40,8.10
2009,09,29,01,41,8.10
2009,09,29,01,42,8.10
2009,09,29,01,43,8.10
2009,09,29,01,44,8.10
2009,09,29,01,45,8.10
2009,09,29,01,46,8.10
2009,09,29,01,47,8.10
2009,09,29,01,48,8.10
2009,09,29,01,49,8.10
2009,09,29,01,50,8.10
2009,09,29,01,51,8.10
2009,09,29,01,52,8.10
2009,09,29,01,53,8.10
2009,09,29,01,54,8.10
2009,09,29,01,55,8.10
2009,09,29,01,56,8.00
2009,09,29,01,57,8.00
2009,09,29,01,58,8.00
2009,09,29,01,59,8.00
2009,09,29,02,00,8.00
2009,09,29,02,01,7.90
2009,09,29,02,02,7.90
2009,09,29,02,03,7.90
2009,09,29,02,04,7.90
2009,09,29,02,05,7.90
2009,09,29,02,06,7.90
2009,09,29,02,07,7.90
2009,09,29,02,08,7.90
2009,09,29,02,09,7.90
2009,09,29,02,10,7.90
2009,09,29,02,11,8.00
2009,09,29,02,12,8.00
2009,09,29,02,13,8.00
2009,09,29,02,14,8.10
2009,09,29,02,15,8.10
2009,09,29,02,16,8.20
2009,09,29,02,17,8.20
2009,09,29,02,18,8.20
2009,09,29,02,19,8.20
2009,09,29,02,20,8.30
2009,09,29,02,21,8.30
2009,09,29,02,22,8.30
2009,09,29,02,23,8.30
2009,09,29,02,24,8.30
2009,09,29,02,25,8.30
2009,09,29,02,26,8.30
2009,09,29,02,27,8.30
2009,09,29,02,28,8.30
2009,09,29,02,29,8.30
2009,09,29,02,30,8.30
2009,09,29,02,31,8.30
2009,09,29,02,32,8.30
2009,09,29,02,33,8.30
2009,09,29,02,34,8.30
2009,09,29,02,35,8.30
2009,09,29,02,36,8.30
2009,09,29,02,37,8.30
2009,09,29,02,38,8.30
2009,09,29,02,39,8.30
2009,09,29,02,40,8.30
2009,09,29,02,41,8.30
2009,09,29,02,42,8.30
2009,09,29,02,43,8.30
2009,09,29,02,44,8.30
2009,09,29,02,45,8.30
2009,09,29,02,46,8.30
2009,09,29,02,47,8.30
2009,09,29,02,48,8.30
2009,09,29,02,49,8.30
2009,09,29,02,50,8.30
2009,09,29,02,51,8.30
2009,09,29,02,52,8.20
2009,09,29,02,53,8.30
2009,09,29,02,54,8.30
2009,09,29,02,55,8.30
2009,09,29,02,56,8.30
2009,09,29,02,57,8.30
2009,09,29,02,58,8.40
2009,09,29,02,59,8.40
2009,09,29,03,00,8.40
2009,09,29,03,01,8.50
2009,09,29,03,02,8.50
2009,09,29,03,03,8.60
2009,09,29,03,04,8.60
2009,09,29,03,05,8.60
2009,09,29,03,06,8.60
2009,09,29,03,07,8.70
2009,09,29,03,08,8.70
2009,09,29,03,09,8.70
2009,09,29,03,10,8.70
2009,09,29,03,11,8.80
2009,09,29,03,12,8.80
2009,09,29,03,13,8.80
2009,09,29,03,14,8.80
2009,09,29,03,15,8.80
2009,09,29,03,16,8.80
2009,09,29,03,17,8.90
2009,09,29,03,18,8.90
2009,09,29,03,19,8.90
2009,09,29,03,20,8.90
2009,09,29,03,21,9.00
2009,09,29,03,22,9.00
2009,09,29,03,23,8.90
2009,09,29,03,24,9.00
2009,09,29,03,25,9.00
2009,09,29,03,26,9.00
2009,09,29,03,27,9.00
2009,09,29,03,28,9.10
2009,09,29,03,29,9.10
2009,09,29,03,30,9.10
2009,09,29,03,31,9.20
2009,09,29,03,32,9.20
2009,09,29,03,33,9.20
2009,09,29,03,34,9.20
2009,09,29,03,35,9.20
2009,09,29,03,36,9.20
2009,09,29,03,37,9.20
2009,09,29,03,38,9.20
2009,09,29,03,39,9.10
2009,09,29,03,40,9.10
2009,09,29,03,41,9.10
2009,09,29,03,42,9.10
2009,09,29,03,43,9.10
2009,09,29,03,44,9.10
2009,09,29,03,45,9.10
2009,09,29,03,46,9.10
2009,09,29,03,47,9.00
2009,09,29,03,48,9.00
2009,09,29,03,49,9.00
2009,09,29,03,50,9.00
2009,09,29,03,51,9.00
2009,09,29,03,52,9.00
2009,09,29,03,53,9.00
2009,09,29,03,54,9.00
2009,09,29,03,55,9.00
2009,09,29,03,56,9.00
2009,09,29,03,57,9.00
2009,09,29,03,58,9.00
2009,09,29,03,59,9.00
2009,09,29,04,00,9.00
2009,09,29,04,01,9.10
2009,09,29,04,02,9.10
2009,09,29,04,03,9.10
2009,09,29,04,04,9.10
2009,09,29,04,05,9.10
2009,09,29,04,06,9.10
2009,09,29,04,07,9.20
2009,09,29,04,08,9.20
2009,09,29,04,09,9.20
2009,09,29,04,10,9.20
2009,09,29,04,11,9.20
2009,09,29,04,12,9.20
2009,09,29,04,13,9.20
2009,09,29,04,14,9.20
2009,09,29,04,15,9.20
2009,09,29,04,16,9.20
2009,09,29,04,17,9.20
2009,09,29,04,18,9.20
2009,09,29,04,19,9.20
2009,09,29,04,20,9.20
2009,09,29,04,21,9.20
2009,09,29,04,22,9.20
2009,09,29,04,23,9.20
2009,09,29,04,24,9.20
2009,09,29,04,25,9.20
2009,09,29,04,26,9.20
2009,09,29,04,27,9.20
2009,09,29,04,28,9.20
2009,09,29,04,29,9.20
2009,09,29,04,30,9.20
2009,09,29,04,31,9.20
2009,09,29,04,32,9.20
2009,09,29,04,33,9.20
2009,09,29,04,34,9.30
2009,09,29,04,35,9.30
2009,09,29,04,36,9.30
2009,09,29,04,37,9.30
2009,09,29,04,38,9.30
2009,09,29,04,39,9.30
2009,09,29,04,40,9.30
2009,09,29,04,41,9.20
2009,09,29,04,42,9.20
2009,09,29,04,43,9.20
2009,09,29,04,44,9.20
2009,09,29,04,45,9.20
2009,09,29,04,46,9.20
2009,09,29,04,47,9.20
2009,09,29,04,48,9.20
2009,09,29,04,49,9.20
2009,09,29,04,50,9.20
2009,09,29,04,51,9.20
2009,09,29,04,52,9.20
2009,09,29,04,53,9.20
2009,09,29,04,54,9.20
2009,09,29,04,55,9.20
2009,09,29,04,56,9.20
2009,09,29,04,57,9.20
2009,09,29,04,58,9.20
2009,09,29,04,59,9.20
2009,09,29,05,00,9.20
2009,09,29,05,01,9.20
2009,09,29,05,02,9.20
2009,09,29,05,03,9.20
2009,09,29,05,04,9.20
2009,09,29,05,05,9.20
2009,09,29,05,06,9.20
2009,09,29,05,07,9.20
2009,09,29,05,08,9.20
2009,09,29,05,09,9.20
2009,09,29,05,10,9.20
2009,09,29,05,11,9.20
2009,09,29,05,12,9.20
2009,09,29,05,13,9.20
2009,09,29,05,14,9.20
2009,09,29,05,15,9.20
2009,09,29,05,16,9.20
2009,09,29,05,17,9.20
2009,09,29,05,18,9.20
2009,09,29,05,19,9.20
2009,09,29,05,20,9.20
2009,09,29,05,21,9.20
2009,09,29,05,22,9.20
2009,09,29,05,23,9.20
2009,09,29,05,24,9.20
2009,09,29,05,25,9.20
2009,09,29,05,26,9.20
2009,09,29,05,27,9.20
2009,09,29,05,28,9.20
2009,09,29,05,29,9.20
2009,09,29,05,30,9.20
2009,09,29,05,31,9.20
2009,09,29,05,32,9.20
2009,09,29,05,33,9.20
2009,09,29,05,34,9.20
2009,09,29,05,35,9.20
2009,09,29,05,36,9.20
2009,09,29,05,37,9.20
2009,09,29,05,38,9.20
2009,09,29,05,39,9.20
2009,09,29,05,40,9.20
2009,09,29,05,41,9.20
2009,09,29,05,42,9.10
2009,09,29,05,43,9.20
2009,09,29,05,44,9.20
2009,09,29,05,45,9.20
2009,09,29,05,46,9.20
2009,09,29,05,47,9.20
2009,09,29,05,48,9.20
2009,09,29,05,49,9.20
2009,09,29,05,50,9.20
2009,09,29,05,51,9.20
2009,09,29,05,52,9.20
2009,09,29,05,53,9.20
2009,09,29,05,54,9.20
2009,09,29,05,55,9.20
2009,09,29,05,56,9.20
2009,09,29,05,57,9.20
2009,09,29,05,58,9.20
2009,09,29,05,59,9.20
2009,09,29,06,00,9.20
2009,09,29,06,01,9.20
2009,09,29,06,02,9.20
2009,09,29,06,03,9.20
2009,09,29,06,04,9.20
2009,09,29,06,05,9.20
2009,09,29,06,06,9.20
2009,09,29,06,07,9.20
2009,09,29,06,08,9.20
2009,09,29,06,09,9.10
2009,09,29,06,10,9.10
2009,09,29,06,11,9.10
2009,09,29,06,12,9.10
2009,09,29,06,13,9.10
2009,09,29,06,14,9.10
2009,09,29,06,15,9.10
2009,09,29,06,16,9.10
2009,09,29,06,17,9.10
2009,09,29,06,18,9.20
2009,09,29,06,19,9.20
2009,09,29,06,20,9.20
2009,09,29,06,21,9.20
2009,09,29,06,22,9.10
2009,09,29,06,23,9.10
2009,09,29,06,24,9.10
2009,09,29,06,25,9.10
2009,09,29,06,26,9.10
2009,09,29,06,27,9.10
2009,09,29,06,28,9.10
2009,09,29,06,29,9.10
2009,09,29,06,30,9.10
2009,09,29,06,31,9.10
2009,09,29,06,32,9.10
2009,09,29,06,33,9.10
2009,09,29,06,34,9.10
2009,09,29,06,35,9.10
2009,09,29,06,36,9.00
2009,09,29,06,37,9.00
2009,09,29,06,38,9.00
2009,09,29,06,39,9.00
2009,09,29,06,40,9.00
2009,09,29,06,41,9.00
2009,09,29,06,42,8.90
2009,09,29,06,43,8.90
2009,09,29,06,44,8.90
2009,09,29,06,45,8.90
2009,09,29,06,46,8.90
2009,09,29,06,47,8.90
2009,09,29,06,48,8.90
2009,09,29,06,49,8.90
2009,09,29,06,50,8.90
2009,09,29,06,51,8.90
2009,09,29,06,52,8.90
2009,09,29,06,53,8.90
2009,09,29,06,54,8.80
2009,09,29,06,55,8.80
2009,09,29,06,56,8.80
2009,09,29,06,57,8.80
2009,09,29,06,58,8.80
2009,09,29,06,59,8.80
2009,09,29,07,00,8.80
2009,09,29,07,01,8.80
2009,09,29,07,02,8.80
2009,09,29,07,03,8.80
2009,09,29,07,04,8.80
2009,09,29,07,05,8.80
2009,09,29,07,06,8.80
2009,09,29,07,07,8.80
2009,09,29,07,08,8.80
2009,09,29,07,09,8.90
2009,09,29,07,10,8.80
2009,09,29,07,11,8.90
2009,09,29,07,12,8.90
2009,09,29,07,13,8.90
2009,09,29,07,14,8.90
2009,09,29,07,15,8.90
2009,09,29,07,16,8.90
2009,09,29,07,17,8.80
2009,09,29,07,18,8.80
2009,09,29,07,19,8.80
2009,09,29,07,20,8.80
2009,09,29,07,21,8.80
2009,09,29,07,22,8.70
2009,09,29,07,23,8.70
2009,09,29,07,24,8.70
2009,09,29,07,25,8.70
2009,09,29,07,26,8.70
2009,09,29,07,27,8.70
2009,09,29,07,28,8.70
2009,09,29,07,29,8.70
2009,09,29,07,30,8.70
2009,09,29,07,31,8.70
2009,09,29,07,32,8.70
2009,09,29,07,33,8.70
2009,09,29,07,34,8.70
2009,09,29,07,35,8.70
2009,09,29,07,36,8.70
2009,09,29,07,37,8.70
2009,09,29,07,38,8.70
2009,09,29,07,39,8.70
2009,09,29,07,40,8.70
2009,09,29,07,41,8.70
2009,09,29,07,42,8.70
2009,09,29,07,43,8.70
2009,09,29,07,44,8.70
2009,09,29,07,45,8.70
2009,09,29,07,46,8.70
2009,09,29,07,47,8.70
2009,09,29,07,48,8.70
2009,09,29,07,49,8.70
2009,09,29,07,50,8.80
2009,09,29,07,51,8.80
2009,09,29,07,52,8.70
2009,09,29,07,53,8.70
2009,09,29,07,54,8.70
2009,09,29,07,55,8.70
2009,09,29,07,56,8.70
2009,09,29,07,57,8.70
2009,09,29,07,58,8.70
2009,09,29,07,59,8.80
2009,09,29,08,00,8.80
2009,09,29,08,01,8.80
2009,09,29,08,02,8.80
2009,09,29,08,03,8.80
2009,09,29,08,04,8.80
2009,09,29,08,05,8.80
2009,09,29,08,06,8.80
2009,09,29,08,07,8.80
2009,09,29,08,08,8.80
2009,09,29,08,09,8.80
2009,09,29,08,10,8.80
2009,09,29,08,11,8.80
2009,09,29,08,12,8.80
2009,09,29,08,13,8.80
2009,09,29,08,14,8.80
2009,09,29,08,15,8.80
2009,09,29,08,16,8.80
2009,09,29,08,17,8.80
2009,09,29,08,18,8.80
2009,09,29,08,19,8.80
2009,09,29,08,20,8.80
2009,09,29,08,21,8.90
2009,09,29,08,22,8.90
2009,09,29,08,23,8.90
2009,09,29,08,24,8.90
2009,09,29,08,25,8.90
2009,09,29,08,26,8.90
2009,09,29,08,27,8.90
2009,09,29,08,28,8.90
2009,09,29,08,29,8.90
2009,09,29,08,30,8.90
2009,09,29,08,31,8.90
2009,09,29,08,32,8.90
2009,09,29,08,33,8.90
2009,09,29,08,34,9.00
2009,09,29,08,35,9.00
2009,09,29,08,36,9.00
2009,09,29,08,37,9.00
2009,09,29,08,38,9.00
2009,09,29,08,39,9.10
2009,09,29,08,40,9.10
2009,09,29,08,41,9.10
2009,09,29,08,42,9.10
2009,09,29,08,43,9.10
2009,09,29,08,44,9.10
2009,09,29,08,45,9.10
2009,09,29,08,46,9.10
2009,09,29,08,47,9.20
2009,09,29,08,48,9.20
2009,09,29,08,49,9.20
2009,09,29,08,50,9.20
2009,09,29,08,51,9.20
2009,09,29,08,52,9.20
2009,09,29,08,53,9.20
2009,09,29,08,54,9.20
2009,09,29,08,55,9.20
2009,09,29,08,56,9.20
2009,09,29,08,57,9.20
2009,09,29,08,58,9.30
2009,09,29,08,59,9.30
2009,09,29,09,00,9.30
2009,09,29,09,01,9.30
2009,09,29,09,02,9.30
2009,09,29,09,03,9.30
2009,09,29,09,04,9.30
2009,09,29,09,05,9.30
2009,09,29,09,06,9.30
2009,09,29,09,07,9.30
2009,09,29,09,08,9.40
2009,09,29,09,09,9.40
2009,09,29,09,10,9.40
2009,09,29,09,11,9.50
2009,09,29,09,12,9.50
2009,09,29,09,13,9.50
2009,09,29,09,14,9.50
2009,09,29,09,15,9.60
2009,09,29,09,16,9.60
2009,09,29,09,17,9.60
2009,09,29,09,18,9.60
2009,09,29,09,19,9.60
2009,09,29,09,20,9.60
2009,09,29,09,21,9.60
2009,09,29,09,22,9.60
2009,09,29,09,23,9.50
2009,09,29,09,24,9.60
2009,09,29,09,25,9.60
2009,09,29,09,26,9.60
2009,09,29,09,27,9.60
2009,09,29,09,28,9.60
2009,09,29,09,29,9.60
2009,09,29,09,30,9.60
2009,09,29,09,31,9.60
2009,09,29,09,32,9.60
2009,09,29,09,33,9.60
2009,09,29,09,34,9.60
2009,09,29,09,35,9.60
2009,09,29,09,36,9.60
2009,09,29,09,37,9.60
2009,09,29,09,38,9.60
2009,09,29,09,39,9.50
2009,09,29,09,40,9.50
2009,09,29,09,41,9.50
2009,09,29,09,42,9.40
2009,09,29,09,43,9.40
2009,09,29,09,44,9.40
2009,09,29,09,45,9.40
2009,09,29,09,46,9.40
2009,09,29,09,47,9.40
2009,09,29,09,48,9.40
2009,09,29,09,49,9.40
2009,09,29,09,50,9.40
2009,09,29,09,51,9.40
2009,09,29,09,52,9.40
2009,09,29,09,53,9.40
2009,09,29,09,54,9.40
2009,09,29,09,55,9.40
2009,09,29,09,56,9.40
2009,09,29,09,57,9.40
2009,09,29,09,58,9.40
2009,09,29,09,59,9.30
2009,09,29,10,00,9.30
2009,09,29,10,01,9.30
2009,09,29,10,02,9.30
2009,09,29,10,03,9.30
2009,09,29,10,04,9.30
2009,09,29,10,05,9.30
2009,09,29,10,06,9.30
2009,09,29,10,07,9.40
2009,09,29,10,08,9.40
2009,09,29,10,09,9.40
2009,09,29,10,10,9.50
2009,09,29,10,11,9.50
2009,09,29,10,12,9.50
2009,09,29,10,13,9.50
2009,09,29,10,14,9.60
2009,09,29,10,15,9.60
2009,09,29,10,16,9.60
2009,09,29,10,17,9.60
2009,09,29,10,18,9.60
2009,09,29,10,19,9.70
2009,09,29,10,20,9.70
2009,09,29,10,21,9.80
2009,09,29,10,22,9.70
2009,09,29,10,23,9.70
2009,09,29,10,24,9.70
2009,09,29,10,25,9.70
2009,09,29,10,26,9.70
2009,09,29,10,27,9.70
2009,09,29,10,28,9.70
2009,09,29,10,29,9.70
2009,09,29,10,30,9.70
2009,09,29,10,31,9.70
2009,09,29,10,32,9.70
2009,09,29,10,33,9.70
2009,09,29,10,34,9.70
2009,09,29,10,35,9.70
2009,09,29,10,36,9.80
2009,09,29,10,37,9.80
2009,09,29,10,38,9.80
2009,09,29,10,39,9.90
2009,09,29,10,40,9.90
2009,09,29,10,41,10.00
2009,09,29,10,42,10.00
2009,09,29,10,43,10.00
2009,09,29,10,44,10.00
2009,09,29,10,45,10.00
2009,09,29,10,46,10.10
2009,09,29,10,47,10.10
2009,09,29,10,48,10.10
2009,09,29,10,49,10.10
2009,09,29,10,50,10.10
2009,09,29,10,51,10.10
2009,09,29,10,52,10.10
2009,09,29,10,53,10.20
2009,09,29,10,54,10.20
2009,09,29,10,55,10.30
2009,09,29,10,56,10.30
2009,09,29,10,57,10.30
2009,09,29,10,58,10.40
2009,09,29,10,59,10.40
2009,09,29,11,00,10.40
2009,09,29,11,01,10.40
2009,09,29,11,02,10.40
2009,09,29,11,03,10.50
2009,09,29,11,04,10.60
2009,09,29,11,05,10.70
2009,09,29,11,06,10.80
2009,09,29,11,07,10.80
2009,09,29,11,08,10.90
2009,09,29,11,09,10.90
2009,09,29,11,10,11.00
2009,09,29,11,11,11.10
2009,09,29,11,12,11.10
2009,09,29,11,13,11.20
2009,09,29,11,14,11.30
2009,09,29,11,15,11.30
2009,09,29,11,16,11.30
2009,09,29,11,17,11.30
2009,09,29,11,18,11.30
2009,09,29,11,19,11.40
2009,09,29,11,20,11.40
2009,09,29,11,21,11.50
2009,09,29,11,22,11.60
2009,09,29,11,23,11.60
2009,09,29,11,24,11.60
2009,09,29,11,25,11.60
2009,09,29,11,26,11.60
2009,09,29,11,27,11.50
2009,09,29,11,28,11.50
2009,09,29,11,29,11.40
2009,09,29,11,30,11.50
2009,09,29,11,31,11.50
2009,09,29,11,32,11.50
2009,09,29,11,33,11.50
2009,09,29,11,34,11.40
2009,09,29,11,35,11.50
2009,09,29,11,36,11.50
2009,09,29,11,37,11.40
2009,09,29,11,38,11.40
2009,09,29,11,39,11.40
2009,09,29,11,40,11.50
2009,09,29,11,41,11.50
2009,09,29,11,42,11.40
2009,09,29,11,43,11.40
2009,09,29,11,44,11.40
2009,09,29,11,45,11.50
2009,09,29,11,46,11.50
2009,09,29,11,47,11.60
2009,09,29,11,48,11.60
2009,09,29,11,49,11.70
2009,09,29,11,50,11.70
2009,09,29,11,51,11.70
2009,09,29,11,52,11.70
2009,09,29,11,53,11.70
2009,09,29,11,54,11.70
2009,09,29,11,55,11.70
2009,09,29,11,56,11.70
2009,09,29,11,57,11.70
2009,09,29,11,58,11.70
2009,09,29,11,59,11.70
2009,09,29,12,00,11.80
2009,09,29,12,01,11.80
2009,09,29,12,02,11.80
2009,09,29,12,03,11.80
2009,09,29,12,04,11.70
2009,09,29,12,05,11.70
2009,09,29,12,06,11.70
2009,09,29,12,07,11.70
2009,09,29,12,08,11.70
2009,09,29,12,09,11.70
2009,09,29,12,10,11.70
2009,09,29,12,11,11.80
2009,09,29,12,12,11.70
2009,09,29,12,13,11.70
2009,09,29,12,14,11.70
2009,09,29,12,15,11.60
2009,09,29,12,16,11.60
2009,09,29,12,17,11.60
2009,09,29,12,18,11.60
2009,09,29,12,19,11.60
2009,09,29,12,20,11.70
2009,09,29,12,21,11.70
2009,09,29,12,22,11.80
2009,09,29,12,23,11.80
2009,09,29,12,24,11.90
2009,09,29,12,25,11.90
2009,09,29,12,26,11.90
2009,09,29,12,27,11.90
2009,09,29,12,28,11.90
2009,09,29,12,29,11.90
2009,09,29,12,30,11.90
2009,09,29,12,31,11.90
2009,09,29,12,32,11.90
2009,09,29,12,33,12.00
2009,09,29,12,34,12.00
2009,09,29,12,35,12.00
2009,09,29,12,36,12.00
2009,09,29,12,37,12.10
2009,09,29,12,38,12.10
2009,09,29,12,39,12.10
2009,09,29,12,40,12.10
2009,09,29,12,41,12.20
2009,09,29,12,42,12.30
2009,09,29,12,43,12.30
2009,09,29,12,44,12.30
2009,09,29,12,45,12.30
2009,09,29,12,46,12.30
2009,09,29,12,47,12.40
2009,09,29,12,48,12.50
2009,09,29,12,49,12.50
2009,09,29,12,50,12.50
2009,09,29,12,51,12.50
2009,09,29,12,52,12.50
2009,09,29,12,53,12.50
2009,09,29,12,54,12.40
2009,09,29,12,55,12.40
2009,09,29,12,56,12.50
2009,09,29,12,57,12.50
2009,09,29,12,58,12.60
2009,09,29,12,59,12.60
2009,09,29,13,00,12.60
2009,09,29,13,01,12.40
2009,09,29,13,02,12.30
2009,09,29,13,03,12.20
2009,09,29,13,04,12.00
2009,09,29,13,05,11.90
2009,09,29,13,06,11.70
2009,09,29,13,07,11.40
2009,09,29,13,08,11.10
2009,09,29,13,09,11.00
2009,09,29,13,10,10.80
2009,09,29,13,11,10.70
2009,09,29,13,12,10.50
2009,09,29,13,13,10.40
2009,09,29,13,14,10.30
2009,09,29,13,15,10.10
2009,09,29,13,16,10.00
2009,09,29,13,17,9.90
2009,09,29,13,18,9.80
2009,09,29,13,19,9.80
2009,09,29,13,20,9.70
2009,09,29,13,21,9.70
2009,09,29,13,22,9.60
2009,09,29,13,23,9.60
2009,09,29,13,24,9.60
2009,09,29,13,25,9.50
2009,09,29,13,26,9.40
2009,09,29,13,27,9.40
2009,09,29,13,28,9.30
2009,09,29,13,29,9.20
2009,09,29,13,30,9.20
2009,09,29,13,31,9.30
2009,09,29,13,32,9.30
2009,09,29,13,33,9.30
2009,09,29,13,34,9.30
2009,09,29,13,35,9.30
2009,09,29,13,36,9.30
2009,09,29,13,37,9.30
2009,09,29,13,38,9.30
2009,09,29,13,39,9.30
2009,09,29,13,40,9.30
2009,09,29,13,41,9.20
2009,09,29,13,42,9.20
2009,09,29,13,43,9.20
2009,09,29,13,44,9.20
2009,09,29,13,45,9.20
2009,09,29,13,46,9.20
2009,09,29,13,47,9.20
2009,09,29,13,48,9.20
2009,09,29,13,49,9.30
2009,09,29,13,50,9.30
2009,09,29,13,51,9.30
2009,09,29,13,52,9.30
2009,09,29,13,53,9.30
2009,09,29,13,54,9.40
2009,09,29,13,55,9.40
2009,09,29,13,56,9.40
2009,09,29,13,57,9.40
2009,09,29,13,58,9.40
2009,09,29,13,59,9.40
2009,09,29,14,00,9.40
2009,09,29,14,01,9.40
2009,09,29,14,02,9.40
2009,09,29,14,03,9.40
2009,09,29,14,04,9.40
2009,09,29,14,05,9.40
2009,09,29,14,06,9.40
2009,09,29,14,07,9.40
2009,09,29,14,08,9.40
2009,09,29,14,09,9.50
2009,09,29,14,10,9.50
2009,09,29,14,11,9.60
2009,09,29,14,12,9.60
2009,09,29,14,13,9.60
2009,09,29,14,14,9.60
2009,09,29,14,15,9.60
2009,09,29,14,16,9.60
2009,09,29,14,17,9.60
2009,09,29,14,18,9.60
2009,09,29,14,19,9.60
2009,09,29,14,20,9.60
2009,09,29,14,21,9.70
2009,09,29,14,22,9.70
2009,09,29,14,23,9.70
2009,09,29,14,24,9.70
2009,09,29,14,25,9.70
2009,09,29,14,26,9.60
2009,09,29,14,27,9.60
2009,09,29,14,28,9.60
2009,09,29,14,29,9.60
2009,09,29,14,30,9.60
2009,09,29,14,31,9.60
2009,09,29,14,32,9.50
2009,09,29,14,33,9.50
2009,09,29,14,34,9.40
2009,09,29,14,35,9.40
2009,09,29,14,36,9.40
2009,09,29,14,37,9.40
2009,09,29,14,38,9.30
2009,09,29,14,39,9.30
2009,09,29,14,40,9.30
2009,09,29,14,41,9.30
2009,09,29,14,42,9.30
2009,09,29,14,43,9.20
2009,09,29,14,44,9.20
2009,09,29,14,45,9.20
2009,09,29,14,46,9.20
2009,09,29,14,47,9.20
2009,09,29,14,48,9.20
2009,09,29,14,49,9.20
2009,09,29,14,50,9.20
2009,09,29,14,51,9.20
2009,09,29,14,52,9.20
2009,09,29,14,53,9.20
2009,09,29,14,54,9.30
2009,09,29,14,55,9.30
2009,09,29,14,56,9.30
2009,09,29,14,57,9.30
2009,09,29,14,58,9.30
2009,09,29,14,59,9.30
2009,09,29,15,00,9.30
2009,09,29,15,01,9.30
2009,09,29,15,02,9.30
2009,09,29,15,03,9.30
2009,09,29,15,04,9.30
2009,09,29,15,05,9.30
2009,09,29,15,06,9.30
2009,09,29,15,07,9.30
2009,09,29,15,08,9.30
2009,09,29,15,09,9.30
2009,09,29,15,10,9.30
2009,09,29,15,11,9.30
2009,09,29,15,12,9.30
2009,09,29,15,13,9.30
2009,09,29,15,14,9.30
2009,09,29,15,15,9.30
2009,09,29,15,16,9.30
2009,09,29,15,17,9.30
2009,09,29,15,18,9.30
2009,09,29,15,19,9.30
2009,09,29,15,20,9.30
2009,09,29,15,21,9.30
2009,09,29,15,22,9.30
2009,09,29,15,23,9.30
2009,09,29,15,24,9.30
2009,09,29,15,25,9.40
2009,09,29,15,26,9.40
2009,09,29,15,27,9.40
2009,09,29,15,28,9.40
2009,09,29,15,29,9.40
2009,09,29,15,30,9.40
2009,09,29,15,31,9.40
2009,09,29,15,32,9.40
2009,09,29,15,33,9.40
2009,09,29,15,34,9.40
2009,09,29,15,35,9.40
2009,09,29,15,36,9.40
2009,09,29,15,37,9.40
2009,09,29,15,38,9.40
2009,09,29,15,39,9.40
2009,09,29,15,40,9.40
2009,09,29,15,41,9.40
2009,09,29,15,42,9.40
2009,09,29,15,43,9.40
2009,09,29,15,44,9.40
2009,09,29,15,45,9.40
2009,09,29,15,46,9.40
2009,09,29,15,47,9.40
2009,09,29,15,48,9.40
2009,09,29,15,49,9.40
2009,09,29,15,50,9.40
2009,09,29,15,51,9.40
2009,09,29,15,52,9.40
2009,09,29,15,53,9.30
2009,09,29,15,54,9.30
2009,09,29,15,55,9.30
2009,09,29,15,56,9.30
2009,09,29,15,57,9.30
2009,09,29,15,58,9.30
2009,09,29,15,59,9.30
2009,09,29,16,00,9.20
2009,09,29,16,01,9.20
2009,09,29,16,02,9.20
2009,09,29,16,03,9.20
2009,09,29,16,04,9.20
2009,09,29,16,05,9.20
2009,09,29,16,06,9.20
2009,09,29,16,07,9.20
2009,09,29,16,08,9.20
2009,09,29,16,09,9.20
2009,09,29,16,10,9.20
2009,09,29,16,11,9.20
2009,09,29,16,12,9.20
2009,09,29,16,13,9.20
2009,09,29,16,14,9.20
2009,09,29,16,15,9.20
2009,09,29,16,16,9.20
2009,09,29,16,17,9.20
2009,09,29,16,18,9.20
2009,09,29,16,19,9.20
2009,09,29,16,20,9.20
2009,09,29,16,21,9.20
2009,09,29,16,22,9.20
2009,09,29,16,23,9.20
2009,09,29,16,24,9.30
2009,09,29,16,25,9.20
2009,09,29,16,26,9.20
2009,09,29,16,27,9.20
2009,09,29,16,28,9.30
2009,09,29,16,29,9.30
2009,09,29,16,30,9.30
2009,09,29,16,31,9.30
2009,09,29,16,32,9.30
2009,09,29,16,33,9.30
2009,09,29,16,34,9.30
2009,09,29,16,35,9.30
2009,09,29,16,36,9.30
2009,09,29,16,37,9.30
2009,09,29,16,38,9.30
2009,09,29,16,39,9.30
2009,09,29,16,40,9.30
2009,09,29,16,41,9.30
2009,09,29,16,42,9.30
2009,09,29,16,43,9.20
2009,09,29,16,44,9.20
2009,09,29,16,45,9.20
2009,09,29,16,46,9.20
2009,09,29,16,47,9.10
2009,09,29,16,48,9.10
2009,09,29,16,49,9.10
2009,09,29,16,50,9.10
2009,09,29,16,51,9.00
2009,09,29,16,52,8.90
2009,09,29,16,53,8.90
2009,09,29,16,54,8.90
2009,09,29,16,55,8.90
2009,09,29,16,56,8.90
2009,09,29,16,57,8.90
2009,09,29,16,58,8.90
2009,09,29,16,59,8.90
2009,09,29,17,00,8.80
2009,09,29,17,01,8.80
2009,09,29,17,02,8.80
2009,09,29,17,03,8.80
2009,09,29,17,04,8.80
2009,09,29,17,05,8.70
2009,09,29,17,06,8.70
2009,09,29,17,07,8.70
2009,09,29,17,08,8.70
2009,09,29,17,09,8.80
2009,09,29,17,10,8.80
2009,09,29,17,11,8.80
2009,09,29,17,12,8.80
2009,09,29,17,13,8.80
2009,09,29,17,14,8.80
2009,09,29,17,15,8.80
2009,09,29,17,16,8.80
2009,09,29,17,17,8.80
2009,09,29,17,18,8.90
2009,09,29,17,19,8.90
2009,09,29,17,20,8.90
2009,09,29,17,21,8.90
2009,09,29,17,22,9.00
2009,09,29,17,23,9.00
2009,09,29,17,24,9.10
2009,09,29,17,25,9.10
2009,09,29,17,26,9.10
2009,09,29,17,27,9.10
2009,09,29,17,28,9.10
2009,09,29,17,29,9.20
2009,09,29,17,30,9.20
2009,09,29,17,31,9.30
2009,09,29,17,32,9.40
2009,09,29,17,33,9.50
2009,09,29,17,34,9.60
2009,09,29,17,35,9.70
2009,09,29,17,36,9.70
2009,09,29,17,37,9.80
2009,09,29,17,38,9.90
2009,09,29,17,39,10.00
2009,09,29,17,40,10.10
2009,09,29,17,41,10.10
2009,09,29,17,42,10.20
2009,09,29,17,43,10.20
2009,09,29,17,44,10.20
2009,09,29,17,45,10.30
2009,09,29,17,46,10.30
2009,09,29,17,47,10.30
2009,09,29,17,48,10.40
2009,09,29,17,49,10.40
2009,09,29,17,50,10.40
2009,09,29,17,51,10.40
2009,09,29,17,52,10.40
2009,09,29,17,53,10.40
2009,09,29,17,54,10.50
2009,09,29,17,55,10.50
2009,09,29,17,56,10.60
2009,09,29,17,57,10.60
2009,09,29,17,58,10.60